Wetbulb
47.08 47.34 47.85 47.85 48.25 48.74 46.53 40.96 32.34 45.12 45.45 33.04 33.85 29.31 30.97 35.23 33.90 37.02 34.91 34.84 32.87 31.03 32.69 31.80 32.91 34.21 37.83 43.29 43.63 39.10 41.05 38.74 34.18 37.65 43.20 44.45 42.68 41.50 41.89 35.02 34.48 35.50 32.37 32.81
47.09 47.21 47.68 47.83 48.23 48.32 44.22 36.92 36.16 44.83 43.35 27.75 29.03 33.06 33.27 34.68 33.23 33.26 33.66 33.49 35.92 36.38 34.20 30.21 33.15 37.07 42.84 44.40 42.18 40.63 41.02 36.92 30.71 35.20 39.21 42.29 40.10 41.68 42.79 42.60 39.60 36.02 30.37 33.22
47.08 47.31 47.52 47.68 47.86 48.36 44.76 32.98 29.46 37.37 39.88 37.23 31.81 30.38 31.12 31.34 36.79 35.12 35.14 33.54 35.60 33.67 31.74 35.57 32.91 35.66 42.05 44.43 42.99 44.75 43.73 38.01 36.44 31.92 35.27 39.92 38.10 41.33 43.25 42.31 35.14 35.47 35.21 37.84
46.97 47.53 47.74 47.90 48.03 48.05 44.67 33.16 31.73 36.41 29.22 32.44 32.92 32.32 32.51 30.66 30.04 35.44 36.37 33.34 32.77 31.11 28.85 31.17 31.90 36.37 40.61 41.71 43.31 44.05 43.04 34.56 37.53 39.20 40.93 41.71 41.05 40.52 41.99 40.99 40.32 36.34 38.47 39.06
46.79 47.15 47.36 47.79 47.69 47.89 42.46 31.71 33.97 36.77 31.85 33.76 34.18 32.71 30.99 30.60 32.63 32.64 31.76 30.82 33.53 33.73 29.98 31.32 30.44 35.40 39.35 37.73 40.76 40.16 42.79 34.94 36.47 35.25 40.03 41.71 39.60 41.75 41.93 41.60 41.29 40.88 41.71 39.91
46.73 46.92 47.07 47.33 47.62 47.26 40.57 40.50 38.88 37.33 33.85 32.56 30.77 31.14 31.90 32.22 34.42 35.12 36.53 35.11 33.34 32.21 33.94 37.10 37.72 39.96 44.00 43.02 40.47 37.81 38.88 36.96 33.90 30.09 38.25 39.35 32.75 37.86 40.53 41.85 42.91 41.77 37.22 41.68
46.66 46.75 46.96 47.16 47.55 47.15 43.69 42.05 40.07 34.32 29.87 31.43 31.32 33.06 34.14 33.34 33.60 33.07 36.60 37.31 34.34 37.87 41.54 40.87 43.10 41.78 42.17 41.47 40.90 42.11 38.92 38.80 34.41 28.66 33.02 28.49 37.79 44.07 44.73 43.27 44.05 43.60 42.86 42.89
46.79 46.68 46.93 47.26 47.34 47.67 44.50 44.40 40.17 36.11 30.04 33.65 33.42 34.20 34.22 34.50 35.69 34.43 34.72 37.47 40.33 40.54 37.74 34.83 33.48 31.08 33.64 36.42 39.98 40.96 43.58 39.48 32.39 31.11 29.01 35.14 39.23 41.76 41.95 41.13 40.15 44.70 43.08 44.59
46.44 46.56 46.68 46.73 46.87 47.44 46.07 44.06 44.32 40.21 33.25 31.35 36.76 34.17 34.98 32.22 31.97 33.16 34.91 39.81 41.71 38.87 34.46 31.45 25.16 22.60 31.78 32.08 36.15 43.07 42.23 40.22 34.90 31.65 27.33 25.30 35.88 43.40 46.55 45.78 35.60 45.46 45.72 44.82
46.63 46.59 46.73 46.86 47.19 47.35 45.21 43.46 44.88 39.81 33.85 35.58 36.47 34.21 34.38 37.17 35.11 32.13 34.20 35.68 35.13 38.26 30.52 27.63 24.84 25.59 35.63 29.21 30.72 31.85 31.14 31.33 30.62 31.12 30.14 32.46 42.04 45.18 47.09 35.42 35.32 45.81 47.09 46.97
46.21 46.12 46.35 46.58 46.88 47.23 45.37 42.20 44.18 39.18 34.02 37.11 38.48 39.69 37.30 37.56 36.74 32.27 34.90 34.20 33.58 32.99 27.39 26.20 27.25 24.80 31.96 33.64 35.96 34.28 32.83 29.32 25.61 29.79 26.73 27.28 44.68 44.67 39.29 41.83 46.01 47.11 46.95 46.44
45.65 45.58 45.79 46.26 46.52 46.86 46.65 40.37 44.13 43.20 37.28 37.56 41.83 42.54 44.35 43.32 42.82 39.33 38.68 35.11 34.65 35.84 31.29 29.23 31.24 28.12 29.76 32.93 28.80 38.65 33.18 35.49 32.48 33.10 33.08 42.50 46.30 46.96 47.53 47.99 47.18 47.63 47.34 48.01
45.63 45.42 45.82 46.21 46.38 46.54 45.95 42.36 42.90 41.26 37.07 35.68 36.64 38.16 43.23 46.82 45.09 46.88 38.33 37.18 39.73 39.51 40.44 36.64 34.25 28.60 34.59 28.01 30.55 33.91 39.62 42.61 36.68 37.46 41.77 43.45 45.70 48.62 49.32 48.11 47.81 48.86 48.32 48.23
46.30 45.66 45.82 46.09 45.98 46.10 45.86 41.96 42.98 40.47 37.38 31.21 35.51 43.95 42.81 47.20 46.73 45.72 46.23 43.99 43.51 41.71 40.79 35.47 33.09 28.99 38.90 33.04 35.96 34.68 38.26 41.76 38.46 37.84 42.38 44.97 45.91 47.04 47.43 48.41 49.50 49.12 49.20 48.55
46.53 46.15 46.03 45.84 46.42 46.00 45.11 43.59 43.66 42.64 36.84 31.85 33.64 40.85 44.84 45.52 44.83 44.15 45.63 45.46 42.00 38.35 34.47 32.81 34.74 37.68 37.29 37.29 37.26 35.22 39.20 38.63 36.61 36.09 43.88 43.84 44.56 47.38 48.44 47.55 47.22 48.67 49.72 48.63
45.48 45.89 46.21 46.39 46.42 46.07 42.78 36.89 42.83 44.26 42.21 36.90 30.94 40.86 42.29 43.99 44.20 43.90 43.72 44.31 42.70 39.78 36.13 34.48 38.14 42.71 40.07 33.26 30.75 38.95 41.47 42.24 43.80 42.40 45.72 46.18 47.39 47.13 48.23 47.55 47.25 47.83 48.59 48.84
45.73 46.14 46.19 46.19 46.21 44.44 37.49 35.95 40.57 44.67 44.18 35.15 32.51 33.37 41.08 44.39 43.42 42.37 40.80 40.86 40.95 38.30 35.65 33.31 35.60 37.48 40.50 33.82 30.93 39.63 42.29 43.32 44.85 46.24 47.36 44.38 45.87 44.81 46.03 46.17 45.01 44.50 43.76 44.14
45.91 45.87 45.97 45.94 45.96 44.18 40.06 43.48 45.28 45.16 41.06 37.15 30.56 32.42 34.68 39.99 36.31 34.42 38.71 35.16 35.91 35.76 34.74 34.18 33.79 35.97 36.31 30.50 37.89 40.92 43.18 44.26 44.02 46.71 47.18 46.31 44.64 44.81 43.70 43.42 42.21 37.88 34.87 35.07
45.93 45.92 45.73 43.83 42.02 39.44 42.31 46.21 46.17 46.62 39.45 30.56 26.03 25.62 28.70 35.23 35.01 35.97 35.26 35.07 29.42 34.41 29.50 31.42 35.31 32.41 30.10 36.32 39.06 41.21 42.34 43.21 43.16 45.48 44.80 44.24 43.20 42.31 41.32 39.42 35.52 32.32 30.44 29.09
44.54 42.56 37.37 31.91 41.03 46.03 45.21 40.90 35.15 36.97 38.12 32.32 23.59 30.24 29.89 34.00 32.07 33.34 33.46 30.61 26.38 27.21 33.18 36.58 28.74 30.17 37.27 41.91 41.80 40.31 39.68 41.23 43.86 41.63 39.93 40.09 36.99 34.99 33.15 31.52 31.00 29.25 27.66 26.64
39.70 37.09 33.16 42.41 46.28 41.39 36.02 31.29 30.88 32.01 30.01 30.74 31.56 31.24 30.66 35.46 28.89 30.34 28.50 30.72 26.68 26.90 28.43 31.15 31.64 31.23 36.94 40.28 39.13 37.98 36.63 36.52 36.30 37.65 37.23 37.25 34.76 31.27 28.60 27.19 27.17 26.52 25.43 23.98
40.62 40.51 41.96 40.86 37.80 33.58 29.35 27.41 29.62 27.52 25.85 29.68 30.53 30.58 31.83 31.16 33.37 27.96 30.72 28.62 31.26 25.65 32.23 27.33 29.91 32.87 34.66 34.36 34.47 34.95 34.69 34.39 33.85 33.29 31.88 31.05 29.98 28.82 27.53 26.50 25.40 24.96 24.77 24.11
42.46 37.71 33.62 32.83 29.02 22.64 17.27 20.27 25.77 21.99 30.30 29.99 32.03 31.82 32.71 33.97 34.79 30.17 30.84 27.83 28.09 33.26 26.89 25.24 29.07 31.29 32.27 31.66 31.39 30.99 31.69 30.80 29.55 28.98 28.60 27.84 27.06 27.30 26.31 24.87 25.16 24.98 23.73 23.84
33.78 26.35 25.74 25.51 25.18 27.06 26.65 29.87 30.87 30.96 32.01 28.97 31.63 32.36 31.96 32.22 30.69 31.41 27.58 28.33 32.18 27.99 26.79 26.29 27.92 28.15 28.11 29.34 29.52 28.16 26.99 27.79 26.99 26.36 25.97 25.55 25.04 24.33 24.45 24.13 24.31 23.31 22.30 22.69
26.90 27.36 21.82 23.77 27.37 26.88 26.50 28.11 29.70 28.58 30.89 32.93 32.33 32.53 32.83 30.35 29.59 30.48 29.92 28.70 26.58 24.84 23.51 24.08 26.41 27.24 26.89 26.38 26.53 25.90 25.50 25.12 24.78 24.74 23.69 23.40 23.24 22.89 22.72 23.68 23.80 23.14 22.26 21.41
26.42 23.70 22.63 24.71 22.32 21.87 23.74 23.97 25.21 28.59 28.29 31.61 33.08 31.08 29.24 29.00 29.21 26.18 20.80 22.19 18.31 19.62 20.36 24.62 26.04 25.73 25.64 25.59 25.71 25.23 25.10 24.52 23.92 23.90 23.61 23.47 22.75 22.13 22.40 23.04 22.67 22.05 21.24 20.22
21.47 19.97 24.73 23.02 20.29 18.18 23.36 24.08 25.21 29.02 27.83 30.37 31.08 24.44 22.44 27.97 23.15 18.17 21.52 16.22 19.54 22.88 23.78 25.53 25.51 24.78 24.51 24.78 24.47 24.24 24.02 23.45 23.40 23.45 23.30 23.22 23.92 23.73 22.21 20.51 21.72 22.10 21.79 20.49
MSLP
1014.51 1014.81 1015.22 1015.68 1016.16 1016.64 1017.08 1017.22 1016.60 1016.13 1016.73 1018.16 1017.08 1015.81 1015.71 1015.15 1014.35 1013.95 1013.45 1012.88 1012.42 1012.13 1011.94 1011.15 1010.92 1009.47 1008.89 1006.79 1006.46 1005.52 1003.66 1003.68 1003.56 1002.30 1001.42 1001.37 1001.83 1001.90 1002.61 1004.05 1005.69 1006.11 1006.28 1004.87
1013.18 1013.49 1013.94 1014.50 1015.07 1015.62 1016.13 1016.02 1016.02 1015.76 1015.77 1015.16 1014.97 1015.22 1015.07 1015.04 1014.65 1014.39 1013.87 1012.94 1012.30 1011.80 1011.81 1011.46 1009.99 1008.63 1007.94 1007.91 1006.84 1004.56 1003.35 1002.91 1003.43 1002.67 1002.04 1001.28 1001.37 1001.54 1002.08 1002.77 1004.04 1004.82 1005.67 1004.37
1011.69 1012.06 1012.53 1013.10 1013.79 1014.38 1015.35 1015.55 1015.15 1014.85 1014.38 1013.41 1013.91 1014.43 1014.21 1014.10 1013.77 1013.72 1013.73 1012.89 1012.60 1012.45 1012.13 1011.11 1009.54 1008.44 1007.48 1007.40 1006.99 1005.35 1003.43 1002.51 1002.21 1001.40 1001.18 1001.22 1001.15 1001.26 1001.51 1002.20 1003.10 1003.78 1003.87 1003.54
1010.08 1010.44 1010.92 1011.55 1012.27 1013.03 1014.06 1013.67 1012.98 1012.59 1012.30 1012.34 1012.88 1013.46 1012.83 1013.00 1013.05 1013.08 1012.73 1011.89 1011.76 1012.00 1011.91 1010.94 1009.59 1008.63 1007.89 1007.76 1007.41 1006.63 1004.53 1003.00 1002.48 1001.96 1001.77 1001.62 1001.42 1001.25 1001.22 1001.23 1001.61 1002.23 1002.50 1002.33
1008.29 1008.70 1009.18 1009.84 1010.66 1011.64 1011.83 1011.58 1011.71 1011.76 1011.21 1011.38 1011.98 1012.13 1011.78 1012.13 1011.87 1012.07 1011.30 1011.41 1011.00 1010.81 1011.19 1011.00 1009.92 1009.57 1008.70 1008.07 1006.91 1007.63 1005.28 1003.85 1003.02 1002.48 1002.32 1002.17 1001.97 1001.68 1000.93 1000.63 1000.73 1000.69 1000.77 1000.76
1006.37 1006.82 1007.36 1008.11 1009.02 1010.14 1009.69 1010.42 1010.57 1010.35 1010.00 1010.54 1010.81 1010.46 1010.95 1010.96 1011.36 1011.00 1010.32 1010.20 1010.33 1009.96 1009.53 1009.09 1008.78 1008.57 1008.61 1008.42 1008.41 1008.33 1007.16 1005.28 1004.13 1003.50 1002.90 1002.47 1002.01 1000.79 1000.32 999.90 999.82 1000.12 1000.13 999.81
1004.46 1004.92 1005.47 1006.19 1007.07 1007.85 1008.45 1008.65 1009.38 1009.60 1008.74 1009.06 1008.80 1009.58 1010.14 1010.24 1010.13 1009.91 1009.34 1009.33 1009.34 1008.74 1008.16 1008.14 1008.02 1007.58 1007.50 1007.77 1007.74 1007.97 1007.68 1006.81 1005.52 1004.82 1003.86 1002.89 1001.02 1000.36 999.88 999.37 999.18 999.36 999.12 998.81
1002.54 1003.08 1003.69 1004.42 1005.17 1006.00 1006.85 1007.43 1007.68 1007.94 1007.70 1008.22 1008.50 1008.64 1008.93 1009.23 1009.20 1009.23 1009.12 1008.38 1008.14 1008.32 1008.37 1008.45 1008.31 1008.07 1007.54 1006.94 1006.48 1006.43 1006.81 1006.95 1006.68 1006.29 1005.00 1002.63 1000.72 999.96 999.30 998.86 998.80 998.23 998.45 998.36
1000.90 1001.51 1002.16 1002.91 1003.69 1004.56 1005.32 1006.13 1006.67 1007.03 1007.36 1006.30 1007.50 1007.70 1007.89 1008.17 1008.19 1008.42 1007.92 1007.68 1007.84 1008.39 1008.57 1008.57 1008.42 1008.12 1007.48 1007.13 1006.27 1005.83 1005.99 1006.07 1006.93 1006.91 1006.06 1003.37 1001.05 999.50 998.36 998.12 998.62 997.77 998.00 998.07
999.30 1000.01 1000.79 1001.62 1002.43 1003.33 1004.50 1004.44 1005.54 1006.47 1006.48 1006.12 1006.22 1005.83 1006.40 1007.09 1007.10 1007.22 1007.40 1007.28 1007.62 1007.95 1008.60 1008.87 1008.75 1008.02 1007.06 1006.92 1006.79 1006.22 1006.19 1006.49 1007.07 1006.53 1006.19 1003.73 1000.55 1000.01 998.47 998.94 999.21 997.89 997.39 997.65
997.61 998.38 999.28 1000.19 1001.11 1002.14 1003.31 1004.01 1004.89 1005.62 1006.20 1005.93 1005.12 1004.97 1004.80 1005.46 1006.03 1006.55 1006.70 1006.96 1006.75 1007.50 1008.20 1008.59 1008.47 1007.56 1006.77 1006.47 1005.89 1005.55 1006.31 1006.39 1006.74 1006.40 1005.65 1004.00 1000.72 999.67 999.28 999.40 998.43 998.06 997.84 997.72
995.56 996.55 997.60 998.65 999.73 1000.91 1002.33 1003.34 1004.16 1005.47 1006.03 1005.56 1005.14 1004.16 1003.55 1003.29 1004.19 1005.23 1005.77 1005.79 1005.79 1006.16 1006.79 1007.57 1007.40 1007.09 1005.80 1005.34 1005.27 1005.04 1005.17 1004.72 1004.52 1004.17 1002.70 1000.91 1000.00 999.53 999.15 999.22 998.90 998.15 998.01 997.99
993.18 994.44 995.82 997.12 998.40 999.77 1001.03 1002.45 1003.39 1004.88 1005.53 1005.35 1005.47 1004.17 1002.85 1003.22 1003.54 1004.03 1005.08 1005.28 1005.30 1005.64 1005.46 1006.34 1006.71 1006.58 1005.98 1005.58 1004.75 1003.89 1002.84 1002.61 1002.80 1002.61 1001.12 1000.12 999.40 999.15 998.87 998.72 998.63 998.19 997.95 998.17
990.84 992.18 994.01 995.61 997.21 998.72 1000.40 1001.22 1002.36 1003.69 1005.01 1005.21 1003.55 1003.39 1002.30 1002.45 1003.14 1003.73 1004.26 1004.90 1005.09 1005.15 1005.60 1006.02 1006.48 1006.29 1004.84 1004.25 1003.36 1003.07 1002.16 1001.84 1001.67 1001.25 1000.25 999.40 998.73 998.42 998.10 997.92 997.67 998.10 998.13 998.59
988.82 990.42 992.60 994.44 996.16 998.02 1000.07 1001.32 1002.17 1002.62 1003.35 1003.37 1003.06 1002.39 1001.97 1001.84 1002.50 1003.03 1003.74 1004.56 1005.06 1005.22 1005.94 1006.17 1006.25 1005.71 1004.97 1004.11 1003.35 1002.19 1001.51 1001.00 1001.09 1000.14 999.02 998.97 998.19 997.91 997.58 997.71 997.93 998.00 998.20 999.02
988.67 990.17 991.96 993.68 995.28 997.59 999.59 1001.07 1002.28 1002.16 1002.30 1002.38 1002.29 1001.10 1001.40 1001.84 1002.23 1003.00 1004.16 1004.48 1004.67 1004.92 1005.49 1005.69 1005.41 1004.90 1004.96 1004.80 1002.94 1001.39 1000.63 1000.06 999.67 999.31 998.47 998.38 998.30 998.57 998.24 998.35 998.54 998.59 998.63 998.78
989.26 990.60 992.02 993.55 995.00 997.11 998.27 998.62 999.07 1000.99 1002.80 1003.27 1001.90 1001.47 1001.25 1001.32 1002.22 1003.14 1004.47 1004.03 1004.24 1004.81 1005.38 1005.60 1005.41 1005.13 1004.67 1004.66 1003.80 1001.27 1000.56 1000.14 999.45 998.92 998.88 999.19 999.06 999.43 999.54 999.61 1000.07 1000.05 1000.38 1000.55
990.08 991.30 992.66 994.11 995.81 997.88 998.49 998.03 998.68 1000.67 1002.30 1002.90 1001.72 1001.82 1002.34 1002.69 1002.99 1003.53 1003.72 1004.29 1004.48 1004.89 1005.13 1005.26 1005.21 1004.97 1004.55 1003.77 1002.28 1001.44 1000.40 999.79 1000.04 999.48 998.72 998.73 999.72 1000.46 1000.92 1001.25 1001.49 1002.08 1003.28 1004.01
991.07 992.33 993.60 995.02 996.67 997.62 998.24 998.77 999.88 1000.41 1002.01 1002.27 1001.90 1001.83 1002.52 1002.72 1003.08 1003.24 1003.88 1004.05 1005.19 1005.02 1005.23 1004.97 1004.66 1004.39 1003.45 1002.03 1002.12 1001.70 1000.61 999.94 999.69 999.80 999.82 1000.15 1000.96 1001.84 1002.51 1003.00 1003.79 1004.54 1005.98 1006.52
992.63 993.61 995.07 996.53 996.90 997.39 998.48 999.69 1000.77 1000.94 1001.29 1001.58 1001.83 1002.03 1002.63 1002.91 1003.61 1004.19 1004.56 1004.68 1005.25 1005.40 1004.72 1004.12 1004.05 1002.79 1001.52 1001.57 1002.06 1002.09 1002.09 1000.56 999.82 1000.78 1001.58 1001.88 1002.75 1003.65 1004.55 1005.67 1006.41 1007.13 1008.29 1009.24
993.51 994.77 995.82 996.42 996.85 997.92 999.44 1000.19 1000.55 1001.16 1001.43 1001.11 1001.51 1001.85 1002.56 1003.49 1003.86 1004.44 1004.73 1005.05 1005.00 1004.88 1003.76 1003.82 1003.56 1002.98 1002.21 1001.60 1002.12 1003.37 1004.01 1002.53 1001.76 1001.34 1002.19 1002.95 1004.16 1005.50 1006.54 1007.87 1008.72 1009.39 1010.20 1011.16
994.23 995.00 996.18 996.75 997.63 998.65 999.58 1000.56 1000.91 1000.80 1001.13 1001.38 1001.42 1001.95 1002.52 1003.32 1003.34 1004.05 1005.00 1004.86 1004.61 1003.68 1002.93 1003.26 1003.05 1003.41 1003.30 1003.19 1003.96 1005.59 1004.86 1004.07 1003.96 1003.85 1004.28 1005.56 1006.45 1007.63 1008.35 1009.27 1010.31 1011.17 1011.90 1012.74
994.92 995.67 997.22 997.96 998.87 999.69 1000.46 1001.11 1001.44 1001.26 1001.06 1001.07 1001.27 1002.05 1002.59 1003.12 1003.34 1004.00 1004.37 1004.43 1003.53 1002.91 1003.14 1003.06 1003.46 1003.75 1004.34 1004.91 1005.68 1005.90 1006.24 1005.60 1006.54 1006.47 1006.74 1007.58 1008.54 1009.49 1009.93 1010.70 1011.84 1012.51 1013.30 1014.39
996.70 997.81 999.35 1000.10 1000.93 1001.56 1001.89 1001.67 1001.61 1001.83 1001.51 1001.31 1001.41 1001.98 1002.37 1002.97 1003.49 1003.77 1004.07 1003.31 1002.77 1002.91 1003.42 1003.89 1004.67 1005.28 1005.98 1006.46 1006.10 1006.95 1007.27 1007.28 1007.40 1008.48 1008.73 1009.48 1009.91 1011.07 1011.95 1012.47 1013.03 1013.84 1014.70 1015.73
998.92 999.84 1001.64 1002.49 1003.05 1003.22 1003.19 1002.75 1002.56 1002.76 1002.20 1001.69 1001.85 1002.23 1002.53 1003.14 1003.56 1003.47 1003.51 1002.84 1002.21 1003.49 1004.14 1005.25 1005.89 1006.53 1007.11 1006.99 1007.45 1008.38 1008.88 1009.23 1009.93 1010.28 1010.34 1010.93 1011.72 1012.42 1013.27 1014.17 1014.71 1015.18 1015.97 1016.83
1001.21 1003.08 1003.78 1004.11 1004.21 1004.46 1004.23 1004.09 1003.88 1003.61 1003.13 1002.40 1002.20 1002.45 1002.76 1002.89 1003.03 1003.15 1004.08 1004.32 1004.86 1005.57 1006.12 1006.67 1007.29 1007.83 1007.70 1007.87 1008.61 1009.34 1009.77 1010.23 1010.77 1011.36 1011.83 1012.43 1013.33 1013.82 1014.42 1015.43 1016.16 1016.85 1017.39 1018.19
1003.93 1005.70 1005.74 1005.71 1006.00 1006.30 1005.99 1005.60 1005.04 1004.32 1003.66 1003.08 1003.04 1003.50 1003.86 1003.72 1004.07 1005.25 1005.98 1006.48 1006.86 1007.18 1007.66 1007.98 1008.34 1008.59 1009.03 1009.51 1010.02 1010.50 1010.87 1011.51 1012.27 1012.80 1013.39 1014.06 1014.76 1015.13 1015.68 1016.63 1017.92 1018.40 1019.08 1019.71
Wind_Speed
23 22 21 19 18 19 13 4 8 4 13 10 6 16 11 7 11 10 7 6 14 16 10 9 8 13 10 21 20 15 11 12 13 15 6 3 5 10 11 6 5 3 6 8
26 25 23 22 20 20 4 6 4 5 11 12 15 12 16 22 19 13 5 6 6 2 4 7 15 10 12 12 13 8 8 10 3 11 8 5 5 5 7 6 5 10 7 6
28 26 25 24 23 23 11 4 6 6 9 4 18 19 18 16 11 18 18 17 16 11 12 13 10 10 8 7 19 30 9 6 21 18 2 3 3 5 14 13 8 7 8 7
28 27 26 26 26 26 14 7 5 6 11 14 16 16 10 22 19 16 10 9 20 18 7 5 17 14 6 1 11 13 9 5 6 7 10 10 12 14 9 17 9 11 9 12
29 29 29 27 27 27 14 6 6 5 1 11 18 22 17 21 13 14 15 25 17 8 13 16 18 14 4 4 11 13 11 4 2 5 11 11 6 24 19 3 4 9 7 9
30 29 29 28 28 28 9 7 4 4 9 13 15 18 19 18 18 17 20 15 13 11 19 18 17 10 4 4 3 9 7 4 3 5 4 10 7 11 15 6 6 5 6 10
30 30 29 29 29 30 10 4 5 6 9 15 18 17 20 20 25 21 12 9 14 15 18 6 3 2 4 6 10 7 8 9 2 3 4 13 8 7 13 19 15 8 5 4
29 29 28 28 29 33 13 5 7 8 12 10 16 19 15 23 21 25 23 21 15 3 4 3 5 3 3 10 8 8 15 11 3 1 3 4 11 7 7 8 8 9 7 7
26 26 26 27 28 28 15 12 6 4 7 17 12 16 16 13 15 17 21 23 14 3 3 4 7 4 3 4 10 2 4 9 5 3 3 9 4 10 4 1 5 4 8 7
27 27 27 27 27 27 15 4 10 4 3 5 15 13 12 12 10 6 4 5 7 8 5 6 6 7 5 4 4 2 1 3 5 3 3 8 10 9 4 4 8 4 6 4
30 29 29 29 29 29 18 7 13 6 2 3 10 20 10 6 11 11 4 2 2 3 6 6 4 4 7 5 5 10 3 4 3 2 3 8 4 7 6 6 4 2 4 2
33 32 31 31 31 31 27 7 11 9 3 3 4 17 18 16 11 7 6 5 4 5 3 1 3 5 1 5 4 10 6 8 7 10 9 10 4 5 4 2 4 2 3 4
36 35 34 32 32 32 29 8 11 8 4 4 8 10 19 8 7 7 4 2 4 3 5 5 4 5 5 4 7 3 5 6 4 3 7 9 9 5 5 6 5 4 3 3
34 37 34 34 33 33 30 7 9 10 4 3 6 12 19 12 10 6 5 2 4 3 1 4 3 3 3 5 4 6 7 6 6 4 7 6 4 9 9 9 6 5 1 2
26 33 32 31 34 34 19 8 9 11 8 7 4 6 6 15 12 4 3 3 4 2 2 2 4 3 2 3 1 10 4 6 5 7 9 5 9 8 8 6 5 4 6 6
23 26 28 30 35 35 11 5 8 12 10 4 5 3 8 8 12 10 7 8 3 3 4 3 2 3 4 4 4 6 7 6 6 5 4 5 5 2 4 6 4 6 7 2
24 25 27 27 34 16 8 6 6 21 9 1 4 2 3 11 10 5 4 2 3 4 3 2 3 1 2 3 8 13 10 7 5 5 6 2 3 2 3 8 10 15 16 16
23 25 25 28 32 15 3 3 21 20 6 3 1 3 4 3 3 4 3 3 2 1 4 1 3 1 3 6 8 11 15 17 8 5 1 6 9 7 8 7 11 17 15 14
28 27 30 15 5 4 3 14 19 4 5 4 1 5 4 1 2 3 3 3 2 1 2 3 5 3 7 5 3 10 10 15 5 6 8 9 11 11 10 13 15 18 14 16
29 11 5 4 4 35 15 5 3 3 3 1 2 1 4 4 2 2 3 2 3 3 5 3 3 6 6 5 8 13 12 8 8 10 6 8 10 11 14 15 13 15 15 15
4 4 4 4 7 5 3 3 2 4 2 1 3 3 6 1 5 3 1 2 1 3 6 8 5 4 1 5 5 9 9 10 13 13 15 15 13 13 15 15 15 15 16 16
6 7 4 3 3 3 5 3 1 2 4 2 4 4 4 1 3 4 3 3 3 7 3 4 4 3 6 10 10 5 6 14 17 17 21 18 19 15 16 16 15 15 16 15
2 5 5 3 4 8 6 3 1 2 1 3 3 4 4 2 2 4 3 5 7 2 3 3 2 5 6 8 8 11 12 18 16 19 20 21 20 17 17 18 16 17 17 14
5 5 6 5 5 5 3 3 2 2 3 2 5 4 3 2 2 2 4 6 2 5 5 4 3 6 6 5 10 10 14 14 17 14 19 19 20 18 16 15 15 16 16 14
6 5 6 5 3 3 3 3 3 5 4 1 4 3 2 2 2 4 5 5 3 0 2 2 3 6 8 10 12 11 12 13 13 13 16 19 18 18 18 16 16 17 17 16
5 9 5 4 3 6 5 7 4 4 4 2 2 3 4 5 2 2 4 4 2 1 2 3 4 6 9 12 12 12 13 14 14 15 16 18 17 18 19 17 16 15 16 15
6 5 4 3 3 2 3 4 4 4 4 2 3 4 3 4 3 3 3 2 2 3 4 5 8 10 11 12 14 14 15 16 15 16 17 18 17 17 19 19 16 17 16 15
Wind_Direction
256 252 248 245 237 226 223 231 230 205 155 191 209 226 213 283 278 302 256 290 262 259 267 277 279 270 235 306 309 267 202 212 238 244 265 240 277 208 172 158 209 166 163 264
252 248 243 237 230 217 189 223 210 219 185 208 214 222 227 242 249 269 285 261 237 128 293 260 224 256 282 306 340 286 192 213 162 241 261 208 197 214 208 146 119 193 161 253
249 246 241 234 228 218 204 152 193 181 216 229 215 217 228 227 221 240 243 253 266 292 280 271 267 271 296 338 321 317 269 169 210 224 239 148 182 274 217 192 194 188 195 223
246 242 237 230 221 214 204 176 211 196 200 215 212 215 230 225 233 226 229 249 235 235 253 286 260 263 320 325 322 317 274 231 193 233 219 263 269 271 265 211 192 192 213 204
247 241 237 229 221 213 215 180 182 200 218 202 210 215 216 232 221 216 233 238 249 264 229 225 276 305 241 277 349 337 305 274 176 209 214 234 224 265 252 245 230 213 199 217
244 241 235 227 216 203 213 198 218 214 200 206 204 218 216 224 225 243 244 243 253 250 243 241 242 260 208 160 253 285 291 298 141 245 207 224 229 228 273 232 233 190 202 222
243 238 231 224 214 203 212 182 157 201 214 205 213 208 211 215 228 237 250 237 228 248 253 246 198 254 247 229 232 215 267 301 31 198 103 226 234 260 253 235 234 213 205 194
241 236 229 221 214 204 208 183 196 195 224 212 210 211 211 223 230 235 246 248 250 292 308 214 240 291 346 261 223 205 200 233 53 76 245 306 192 238 191 175 247 188 190 206
235 230 224 218 213 211 208 204 187 188 203 213 194 200 209 211 226 236 244 250 250 293 239 216 207 215 168 278 327 255 176 173 142 128 239 224 211 244 264 145 242 223 172 188
228 222 219 215 212 209 203 166 163 146 192 187 190 202 195 209 214 230 197 211 215 178 227 224 233 230 196 205 209 353 41 78 161 107 270 291 261 278 217 183 229 286 177 158
226 221 216 213 209 204 192 185 179 173 165 255 221 208 174 185 209 221 246 129 283 109 184 182 211 197 194 182 167 142 306 148 181 115 156 256 244 302 152 217 308 262 301 210
222 217 214 210 206 201 192 203 169 170 180 260 297 244 209 199 184 182 211 207 173 189 141 201 163 279 98 142 237 195 190 203 183 182 206 219 201 220 132 238 248 27 22 309
217 210 210 205 201 197 193 179 154 152 181 285 253 254 221 207 155 154 161 279 207 188 184 174 203 223 148 201 216 242 250 163 212 128 240 233 225 240 189 209 194 267 48 108
219 202 203 200 196 191 190 176 166 152 120 237 256 208 208 170 148 143 153 197 293 144 138 159 178 192 232 224 230 217 216 145 211 243 286 308 297 215 223 253 237 192 91 185
207 186 187 190 187 183 179 160 174 176 167 185 219 177 238 185 192 124 34 235 220 161 101 112 194 265 343 263 32 234 200 195 166 220 231 208 233 258 258 244 284 303 144 184
161 162 173 178 175 167 152 139 193 192 207 296 180 175 152 159 170 157 286 227 176 99 147 204 233 238 111 293 253 246 218 225 207 239 268 222 138 243 345 120 84 41 31 120
151 155 158 162 159 153 162 170 155 177 176 156 202 92 24 171 138 131 221 172 164 137 160 173 175 213 170 179 265 267 299 330 293 255 143 128 171 149 35 87 81 75 66 60
142 143 145 154 144 108 283 330 159 150 162 265 188 125 100 27 161 145 183 120 61 63 175 84 162 157 190 227 237 239 269 274 248 243 266 124 111 83 68 70 85 73 67 70
124 125 117 104 76 122 133 116 129 91 112 211 169 121 147 88 75 107 40 96 71 331 175 213 135 207 227 170 263 298 247 252 201 135 111 105 102 96 71 77 72 82 75 74
101 87 66 92 171 114 101 42 88 96 278 330 97 66 108 92 64 61 96 53 197 185 221 163 179 245 239 165 47 6 340 357 155 116 112 113 93 86 79 78 80 88 91 90
65 76 62 93 74 68 68 112 110 151 176 116 148 103 118 164 128 127 138 162 216 211 233 177 212 240 48 111 97 40 355 34 55 76 80 80 100 108 102 90 86 91 93 93
94 111 94 80 82 98 101 95 153 94 157 188 125 156 131 151 117 106 169 179 194 245 172 155 200 113 89 88 97 75 56 65 66 73 85 85 87 93 99 97 95 93 95 96
70 53 62 36 327 45 91 127 12 37 162 179 144 106 114 99 81 100 137 198 233 149 202 211 49 90 85 95 97 87 79 82 69 80 83 85 88 85 91 97 93 94 91 92
62 67 53 52 21 42 20 20 65 27 5 101 110 110 119 119 121 147 189 234 225 202 183 193 126 114 95 117 89 87 85 80 88 87 93 90 90 87 82 84 92 95 91 91
50 36 49 51 47 22 354 322 55 3 314 35 88 76 97 120 155 191 225 238 143 50 119 68 100 117 124 100 92 96 96 95 98 94 93 95 94 93 90 86 90 91 93 90
61 39 27 349 37 9 13 9 11 352 333 291 71 136 176 192 194 85 29 349 25 30 40 66 90 104 96 95 96 95 95 93 94 92 93 94 94 94 92 86 80 80 82 84
53 28 353 5 101 44 355 337 328 315 318 41 36 48 5 314 72 59 28 18 44 72 83 84 87 92 94 96 97 97 96 95 94 96 94 95 97 94 89 87 83 84 82 84